Helicity
32 -0 22 24 -27 -5 34 67 67 57 59 28 46 110 76 56 -6 30 48 56 65 33 95 87 86 55 52 32 28 36 32 39 48 50 42 43 40 46 47 46 41 27 2 10 31 42 68 49 10 20 28 -1 -14 -2
34 16 2 135 17 38 35 37 50 72 32 25 39 48 41 39 17 29 51 57 68 100 104 124 104 101 74 50 26 50 43 53 48 43 36 30 40 30 30 38 24 14 22 54 40 38 22 11 6 7 4 13 5 1
35 66 36 80 28 29 44 50 43 42 87 66 60 63 61 25 14 51 47 83 108 153 128 78 102 122 85 67 64 32 25 23 31 53 48 46 46 23 27 23 21 14 8 12 -0 19 9 3 14 14 6 5 -6 -13
68 76 95 -2 16 27 33 27 14 33 55 73 96 50 37 28 53 62 90 114 120 100 92 98 107 104 133 59 42 40 25 21 24 33 39 42 46 30 28 25 13 23 10 20 37 41 23 19 14 2 8 3 -0 2
54 63 4 -5 18 33 33 24 44 50 61 28 33 38 51 64 67 106 118 124 117 68 92 98 92 146 114 76 72 54 29 14 8 13 26 37 49 45 39 19 23 10 17 19 29 35 35 26 3 -7 -5 -6 -13 -5
126 24 -6 12 22 24 16 18 30 28 23 50 50 61 113 111 107 126 126 128 135 111 171 110 114 117 100 74 66 62 47 37 31 33 35 29 42 49 52 45 45 27 17 5 29 48 53 40 24 13 11 2 -8 -0
178 43 46 48 47 57 47 35 28 41 53 55 52 57 46 54 89 97 75 133 169 142 94 93 69 81 81 61 48 47 53 45 48 41 48 48 46 42 53 57 40 35 17 8 43 66 52 13 15 8 13 4 2 -7
18 68 53 35 6 22 55 42 62 67 45 36 40 66 94 93 59 102 197 181 135 79 103 53 50 54 65 45 45 47 40 36 50 53 50 59 52 47 46 55 64 40 17 -8 10 34 40 56 23 10 -9 -20 -21 -15
68 66 48 32 33 37 55 37 61 49 48 47 52 87 113 122 107 115 209 166 103 88 56 54 36 36 56 50 46 36 28 41 27 37 61 61 85 82 53 60 53 26 2 -13 4 37 52 34 11 -7 -12 -13 1 6
67 55 44 51 51 68 40 40 67 60 62 63 124 102 114 98 127 168 127 92 91 91 82 59 57 46 29 37 39 23 12 21 37 63 56 60 69 75 69 47 34 30 19 25 20 16 31 33 13 5 12 13 17 25
61 58 36 46 53 42 40 51 62 88 111 113 102 111 127 104 109 103 97 91 84 62 66 70 54 48 27 31 31 7 17 25 31 46 26 37 29 28 50 43 43 41 14 15 19 11 18 28 23 27 32 45 42 41
55 31 50 37 50 27 38 47 69 97 102 100 93 109 107 117 112 82 102 91 71 57 60 68 66 54 41 14 17 -0 12 18 2 28 7 -2 20 23 44 53 62 41 16 26 36 46 55 54 43 44 50 57 57 59
41 50 43 37 20 25 44 49 53 44 103 152 189 163 132 94 92 74 61 64 48 52 53 63 74 54 27 15 5 2 4 -4 14 -0 14 22 9 10 33 60 70 53 43 53 76 83 76 72 70 56 60 59 63 50
54 44 38 46 46 53 45 65 79 127 115 144 163 135 122 79 60 56 64 66 57 49 52 56 58 30 18 -12 -20 -10 -14 5 -0 13 24 22 34 19 17 25 24 31 39 56 68 73 78 80 88 75 59 46 47 41
51 38 51 26 29 39 59 65 104 135 130 122 129 101 81 61 83 85 96 85 75 50 43 45 39 -0 -21 -30 -15 -12 -4 10 25 17 12 14 51 45 21 23 23 26 39 54 51 72 73 68 79 84 63 61 53 42
61 67 28 24 31 42 57 84 133 125 138 117 88 80 90 55 75 84 98 102 73 47 42 39 10 -39 -44 -19 -14 20 25 24 9 16 14 27 38 12 8 15 15 23 19 18 20 39 49 50 58 64 68 53 31 30
74 22 -19 20 36 54 84 122 154 131 104 99 86 88 85 88 72 70 70 62 67 47 33 17 -29 -50 -24 -19 33 10 30 25 30 28 15 12 26 2 6 19 17 11 36 40 66 67 73 65 64 62 61 42 48 51
47 -5 -18 17 54 87 136 135 127 109 109 113 78 80 71 67 47 50 47 58 35 25 6 -16 -39 -33 -24 35 31 24 20 15 19 12 10 12 22 27 16 28 52 59 58 72 70 34 41 52 59 61 71 67 64 49
44 18 24 41 53 81 94 101 114 114 97 81 65 74 70 60 40 27 13 13 26 18 1 -27 -45 -35 34 38 38 30 14 4 4 12 18 27 28 42 53 56 72 76 72 75 73 56 49 51 58 65 74 62 67 65
79 83 51 40 49 76 87 86 97 102 107 84 66 81 80 62 38 29 26 15 14 17 -9 -32 -40 47 47 34 27 27 18 16 21 31 27 28 37 59 60 74 80 96 93 89 91 77 75 81 73 75 77 82 84 98
112 109 65 50 56 54 54 72 86 95 68 80 67 67 67 37 37 30 25 24 13 9 -3 -3 50 41 49 40 32 22 16 20 -10 -12 -0 46 65 67 83 78 100 88 88 84 73 71 67 70 78 87 95 108 112 111
97 80 55 52 39 36 38 57 71 77 81 58 42 45 43 43 33 26 23 28 22 30 29 39 46 32 39 38 29 20 26 40 54 59 79 115 95 91 87 89 90 84 88 86 87 92 90 94 97 108 119 124 116 112
89 84 52 34 29 45 50 61 73 97 96 61 47 37 25 17 12 7 16 25 38 46 47 56 47 48 43 50 38 45 50 52 61 65 60 56 70 79 90 82 77 97 119 120 114 107 108 114 119 125 129 116 111 112
88 64 44 38 41 35 42 53 51 65 88 83 58 40 23 9 9 10 21 37 52 34 35 43 40 47 59 50 39 50 63 77 100 95 70 71 77 89 87 84 89 96 109 145 140 131 129 127 128 121 120 112 106 106
51 46 30 32 37 40 46 42 30 17 37 42 51 35 27 11 4 18 35 44 38 26 28 30 32 43 44 51 54 61 65 66 67 60 74 76 103 118 107 107 114 125 134 147 135 135 136 126 122 122 116 111 116 122
48 33 32 26 40 40 42 48 41 27 23 25 26 32 21 20 14 17 24 27 30 25 24 27 29 34 38 40 43 54 55 64 81 86 97 93 83 82 94 108 119 119 109 104 117 124 128 127 132 139 145 153 144 137
31 24 31 35 39 32 29 41 49 54 42 23 20 21 23 25 14 10 29 49 39 34 34 33 30 30 33 43 65 78 84 91 100 100 110 108 102 86 77 78 75 99 104 110 106 111 131 138 143 148 158 151 142 131
36 27 44 35 43 47 59 58 55 46 27 25 25 27 30 24 23 22 14 44 31 22 13 18 24 29 31 46 59 79 103 98 105 116 137 149 141 136 130 127 135 149 149 131 134 133 130 140 149 150 147 158 159 151
20 33 30 45 64 50 43 48 50 35 37 26 28 26 21 16 26 17 9 7 13 27 25 18 29 36 54 63 62 50 62 64 78 90 94 106 105 113 127 143 162 170 176 190 188 167 167 165 163 167 168 166 163 154
31 23 23 36 44 44 48 62 70 66 53 54 67 51 35 24 26 33 39 37 21 9 12 19 24 21 28 41 54 55 42 41 41 55 77 83 91 135 143 154 165 167 169 189 215 231 228 216 205 182 167 147 136 132
45 53 21 10 27 50 66 61 50 46 57 60 61 64 72 63 50 58 61 67 67 71 57 44 39 40 42 44 49 60 48 46 62 87 105 135 154 177 183 184 180 175 167 162 159 159 161 151 139 142 140 144 137 125
64 53 57 46 42 68 70 60 60 54 48 57 59 64 54 54 47 48 84 76 82 74 68 71 53 49 60 81 92 103 98 120 112 115 130 144 169 193 212 205 188 172 174 173 163 149 132 136 126 128 134 136 131 125
56 59 59 50 56 50 57 68 74 83 94 104 95 107 110 110 91 120 103 108 103 101 96 106 131 133 121 125 134 158 160 183 191 172 164 174 199 219 217 202 185 184 189 174 153 133 130 134 131 132 135 130 120 106
Wind_Speed
47 49 46 45 50 24 22 18 16 13 10 15 30 41 47 42 32 39 28 34 29 19 20 26 25 21 25 31 24 24 22 28 25 28 29 26 24 23 21 24 24 22 20 24 26 30 34 46 29 30 31 34 34 28
43 46 42 50 30 20 25 22 13 11 12 26 32 38 38 40 37 37 29 33 30 22 17 18 13 20 26 27 22 26 27 24 27 27 27 23 20 20 18 25 23 24 24 27 29 29 32 31 29 30 29 25 20 16
46 49 42 57 23 23 18 19 14 12 24 29 32 34 31 34 44 43 28 30 24 15 12 21 21 20 20 23 30 27 27 26 27 26 21 22 21 19 21 24 23 22 24 26 24 28 27 26 27 22 23 18 23 20
49 52 64 40 27 30 23 20 15 16 20 27 29 29 31 34 37 32 34 34 30 21 23 21 22 19 21 15 15 16 9 14 15 20 22 22 22 24 23 23 24 23 22 22 24 23 24 23 22 20 21 19 17 12
52 71 90 43 36 28 21 20 13 14 20 23 22 26 27 25 21 19 19 26 31 28 27 19 14 17 15 11 11 13 15 18 20 23 24 24 22 21 21 22 23 23 18 16 23 19 20 17 17 16 14 15 14 19
50 52 39 37 43 36 24 15 14 18 17 29 32 31 29 31 34 37 34 25 26 26 19 24 25 22 17 14 16 19 23 25 25 26 26 25 23 25 19 20 19 22 24 28 24 18 12 11 15 19 19 17 13 13
77 42 36 39 42 40 25 14 13 29 37 32 26 26 24 24 26 32 34 33 32 29 24 21 24 28 26 24 25 26 28 28 29 27 28 26 22 24 22 20 12 15 19 16 8 15 9 9 12 18 17 12 12 15
43 40 32 33 43 43 27 16 33 40 36 26 16 14 10 10 15 19 20 24 26 19 24 23 25 21 29 24 24 29 28 29 32 30 27 26 22 23 24 13 6 11 16 14 17 24 9 13 10 10 13 16 15 14
42 37 33 31 35 39 23 19 24 26 21 21 22 19 23 21 26 23 27 25 18 24 24 25 13 18 20 21 24 26 30 31 31 30 29 27 27 27 21 3 9 15 25 23 22 9 8 5 10 16 20 17 14 15
38 33 34 30 35 26 17 24 25 24 23 23 28 29 33 25 26 28 26 29 27 27 26 21 21 17 14 18 23 26 29 28 31 33 30 33 33 25 22 22 22 24 30 17 14 9 4 6 13 15 17 18 16 18
32 28 29 36 33 24 24 25 30 25 29 33 30 33 33 28 27 23 26 28 29 27 27 21 18 14 19 18 23 27 27 31 34 34 31 30 27 17 32 30 24 23 24 24 28 23 20 8 8 12 14 16 16 19
28 25 25 38 33 21 25 30 30 30 33 32 27 27 28 27 27 28 30 29 28 25 21 12 13 18 20 23 26 25 29 29 32 29 29 28 23 29 34 32 28 24 30 30 24 18 14 11 12 11 13 15 17 22
27 27 26 40 28 17 27 28 19 14 29 30 28 27 31 31 29 30 29 27 23 17 14 8 13 20 22 25 26 26 27 29 29 26 13 29 40 45 39 31 24 27 27 20 18 14 9 8 10 10 10 12 15 19
26 24 35 27 16 21 18 21 28 28 29 29 31 31 31 30 29 28 23 18 19 14 8 11 18 23 24 23 25 25 25 30 27 29 31 35 47 53 49 44 38 33 29 18 10 8 8 7 8 9 9 11 14 19
28 26 24 16 15 18 23 25 26 26 27 28 29 29 27 24 21 18 16 12 14 10 12 17 22 24 24 25 24 23 19 30 34 31 30 36 49 54 49 40 35 26 15 9 7 6 11 7 4 6 8 12 15 19
33 17 18 15 19 26 27 28 25 27 25 26 25 22 20 9 10 8 8 9 15 14 18 22 23 22 23 24 22 29 32 31 33 30 28 22 44 53 49 44 44 35 40 41 37 14 18 17 5 4 8 13 18 21
11 25 14 14 18 17 23 27 24 21 22 24 22 19 16 13 13 16 19 19 22 19 19 21 21 23 25 20 31 35 34 30 28 26 21 24 49 51 43 32 37 43 31 34 29 23 3 13 17 17 15 18 21 24
13 20 12 18 25 23 23 21 22 20 19 18 18 17 17 20 19 21 22 24 22 19 19 19 23 24 23 25 33 32 28 25 24 22 18 20 18 17 22 18 9 18 25 23 4 46 35 24 17 16 19 21 22 24
15 10 13 19 23 24 26 23 23 20 20 21 18 19 20 21 20 21 23 22 21 19 19 18 21 20 28 33 29 27 23 22 24 22 24 24 17 15 13 12 14 20 18 18 27 24 22 20 18 19 19 20 24 26
13 10 14 16 22 22 23 24 25 21 22 22 21 20 22 23 25 24 23 21 20 20 15 13 19 31 34 30 28 25 24 20 17 17 20 23 21 12 12 14 18 15 6 11 12 15 16 16 16 17 18 21 24 28
21 26 20 21 21 20 21 23 22 23 21 24 21 21 22 24 26 27 26 25 23 23 14 11 35 36 33 31 30 28 23 26 25 29 26 18 12 12 13 13 13 7 6 9 16 15 13 12 14 16 18 22 26 29
29 24 22 22 21 23 22 24 20 21 24 21 22 25 25 26 26 27 27 25 27 28 22 26 39 39 38 35 31 29 22 21 24 25 24 16 13 11 10 10 7 6 5 8 9 8 9 12 14 16 19 23 27 30
23 24 23 25 24 25 24 26 22 23 22 21 23 26 27 28 29 30 32 31 32 32 32 40 43 40 35 31 27 27 22 20 23 27 26 25 21 15 10 9 12 6 5 6 7 8 10 13 14 17 21 24 27 31
25 24 26 27 27 25 27 26 26 23 22 23 25 27 28 29 30 33 35 31 30 31 33 40 41 37 35 33 33 29 25 23 23 26 27 23 22 16 14 15 14 10 8 7 9 11 13 15 16 18 22 25 28 31
27 29 29 28 29 27 26 26 29 29 29 27 29 29 29 29 34 35 34 33 31 35 37 40 44 42 41 38 35 29 28 26 27 31 27 25 20 17 18 16 13 11 9 7 9 11 15 16 18 21 23 26 30 33
30 32 32 30 29 29 26 26 28 28 28 27 28 27 29 33 34 34 33 35 36 35 36 41 42 40 39 38 32 28 28 27 25 29 25 20 17 16 16 13 12 14 10 10 10 12 15 16 19 21 25 28 31 33
38 35 33 31 30 29 29 30 27 27 25 24 26 27 28 31 32 34 34 33 30 29 30 32 34 36 35 30 26 26 25 26 29 28 21 19 19 19 15 14 14 11 7 12 14 13 14 15 18 22 26 29 32 35
34 32 32 28 31 31 28 26 26 28 26 24 23 25 28 31 33 29 30 28 27 28 30 30 30 31 29 26 23 21 23 23 22 23 22 21 21 21 21 21 18 14 14 16 17 17 17 18 20 22 25 30 33 37
36 32 27 29 28 28 29 27 28 26 27 27 31 33 33 28 27 27 29 28 29 30 31 31 30 27 25 23 24 25 18 17 16 16 16 17 16 19 20 17 16 17 18 20 22 21 21 21 23 25 28 31 34 37
42 28 32 31 32 34 31 32 32 31 33 36 35 34 35 31 29 26 26 28 33 37 36 34 30 27 27 24 25 23 23 23 23 19 15 13 13 12 13 14 15 16 18 19 20 22 24 25 26 28 30 32 35 39
29 31 41 40 43 42 41 40 40 41 42 43 42 43 44 42 40 32 27 32 34 36 36 38 36 34 30 28 25 24 25 23 25 24 24 19 14 12 12 13 15 17 17 18 18 19 20 23 24 27 30 33 36 38
28 33 37 42 43 42 40 43 44 45 46 47 48 45 46 45 49 39 40 38 38 43 42 39 40 39 34 31 29 30 32 19 20 21 19 17 14 13 13 14 16 17 17 18 19 19 21 23 26 28 30 33 36 38
19 19 20 23 27 30 34 36 40 45 47 49 50 50 49 49 50 44 42 40 42 44 42 39 37 36 30 30 29 29 26 22 19 18 17 15 13 13 14 15 16 16 17 18 19 20 22 25 27 29 32 33 35 37
Wind_Direction
239 234 242 233 200 147 141 148 145 144 177 215 219 221 218 220 221 230 252 240 246 268 253 247 248 257 251 246 255 253 259 260 261 259 265 277 287 304 332 332 343 352 359 356 352 346 343 334 322 330 281 284 291 291
231 228 222 204 195 148 130 128 151 172 198 215 215 217 218 216 218 231 240 228 233 245 235 241 265 263 252 253 255 246 261 259 259 264 273 295 315 331 356 348 360 351 353 357 358 8 15 299 304 284 287 289 274 320
235 222 219 200 181 131 133 120 131 175 210 211 214 213 217 222 216 216 226 220 218 216 225 236 247 255 258 251 234 252 254 260 263 275 299 315 332 346 349 357 13 27 52 33 56 25 316 305 338 318 342 333 3 354
225 214 196 192 135 120 116 117 126 195 202 211 215 218 223 216 212 221 213 218 220 227 230 238 243 244 250 268 275 275 320 301 327 310 320 332 338 345 353 10 14 24 64 57 360 28 7 320 334 335 354 344 348 241
212 195 164 129 122 119 118 117 150 186 199 206 210 209 204 202 205 204 218 228 224 236 228 224 239 252 265 306 336 329 332 335 336 335 338 338 349 358 2 14 18 35 49 31 330 25 304 314 330 319 309 340 338 13
192 175 143 128 119 113 117 128 171 186 191 196 193 195 205 207 209 208 211 233 228 228 227 232 237 247 268 310 327 325 321 329 332 336 341 346 347 347 357 354 17 14 310 274 285 308 312 334 357 14 16 3 335 333
180 149 138 121 114 112 112 163 155 191 190 192 200 205 209 215 216 217 222 224 227 227 238 239 248 253 260 280 298 317 326 330 328 337 338 342 346 346 346 344 53 350 303 289 358 45 317 296 337 28 14 340 336 241
160 141 136 123 116 113 108 170 189 189 191 192 175 173 182 192 211 239 236 231 231 246 245 255 264 271 269 300 317 316 334 337 338 340 341 337 342 338 332 3 11 306 278 271 281 275 337 55 21 346 268 245 257 272
140 134 129 119 112 110 120 175 178 178 173 181 190 207 215 224 223 226 226 229 257 251 257 267 298 298 292 322 334 340 339 342 346 345 341 336 325 313 320 356 275 262 256 259 269 313 48 313 281 260 251 267 305 323
146 140 119 112 108 114 149 183 178 181 189 202 212 214 210 229 229 230 238 240 253 266 271 287 287 333 338 341 345 355 353 357 349 348 353 332 319 312 296 269 259 251 250 254 259 276 309 323 285 289 293 295 321 356
149 135 117 105 108 116 180 186 192 201 210 212 220 216 204 220 225 253 245 249 258 270 275 291 316 25 344 6 4 0 7 4 353 356 353 348 335 303 252 241 243 248 245 250 258 263 268 314 353 1 325 0 2 18
142 130 122 104 107 116 184 194 203 219 222 222 212 210 223 241 251 249 246 255 264 278 295 332 357 351 2 6 11 18 12 16 8 29 23 13 313 240 229 230 238 247 243 249 265 267 281 298 308 332 6 17 18 37
143 120 115 104 107 147 189 200 208 195 203 208 220 234 237 244 249 253 251 258 276 297 308 357 2 353 16 16 21 28 25 26 30 46 83 216 187 198 215 228 243 247 249 264 266 282 310 339 336 336 353 4 27 31
137 124 104 107 151 182 187 197 202 208 214 222 226 228 240 248 251 254 261 273 286 299 21 11 354 5 18 29 35 36 33 238 238 211 194 183 168 174 192 205 218 231 242 261 287 309 297 315 338 340 356 25 31 36
124 115 111 144 151 181 195 204 212 221 223 225 230 235 247 251 248 258 265 285 279 318 354 13 9 18 35 43 41 25 294 239 209 205 206 183 144 155 191 211 221 237 261 283 20 291 261 275 336 15 1 14 18 25
107 123 184 155 182 195 202 206 220 223 232 237 246 239 239 256 268 281 289 298 289 322 346 354 15 34 44 45 42 246 235 232 221 237 248 73 124 174 190 200 200 215 202 197 204 147 244 242 271 10 345 3 26 32
185 202 155 175 196 210 218 218 230 242 248 247 244 248 255 261 266 259 264 277 282 314 344 360 27 47 54 40 241 229 227 241 260 285 306 71 137 180 200 221 212 203 104 104 94 86 304 245 75 63 35 36 32 25
131 110 141 200 209 218 224 241 244 253 248 245 251 256 262 253 257 266 275 281 301 336 354 13 51 64 59 257 234 236 256 290 290 301 304 259 257 259 250 261 323 72 93 87 293 128 107 92 69 46 48 47 32 26
139 146 201 215 226 229 234 246 252 250 252 250 252 257 258 261 277 283 287 303 324 350 15 32 61 64 251 234 244 260 297 308 285 278 258 256 278 287 304 320 40 79 85 91 103 100 96 85 67 63 47 39 22 17
155 202 226 243 241 245 251 252 252 260 253 252 256 265 269 269 274 285 299 315 336 343 355 38 75 254 240 247 254 267 275 345 348 317 288 277 283 326 352 48 74 73 42 83 75 87 85 69 56 44 35 27 22 15
208 223 243 257 263 275 273 263 270 263 261 262 264 274 285 287 286 287 297 311 327 330 342 343 258 247 250 256 264 280 337 72 297 278 288 315 353 346 52 25 61 22 55 87 105 99 84 62 52 41 36 22 15 12
215 231 248 269 280 283 287 279 282 273 269 271 273 279 288 296 302 304 306 314 317 313 312 288 255 252 253 261 276 295 350 15 3 326 327 6 346 1 55 58 24 331 27 83 92 83 53 44 41 32 22 13 9 6
223 240 262 277 285 290 286 268 280 276 276 277 281 285 292 301 309 310 309 309 303 305 294 263 252 256 264 276 295 310 339 0 354 332 323 315 319 334 19 339 313 342 17 39 42 45 36 29 25 18 12 8 5 4
240 264 274 279 283 285 272 271 267 276 280 281 287 292 299 308 316 317 313 316 310 312 292 260 251 258 267 274 286 303 321 338 347 336 322 323 315 328 325 311 312 325 345 27 27 21 19 17 20 14 8 5 3 1
261 267 275 277 272 275 275 272 266 268 272 279 287 294 306 318 319 319 319 317 316 296 276 256 248 255 262 272 281 299 307 318 322 309 324 319 324 321 309 309 319 332 353 21 15 14 10 12 11 8 6 4 1 1
268 271 271 270 267 269 276 280 273 269 273 284 293 306 314 318 321 319 324 308 293 287 270 254 252 258 266 272 287 300 305 314 329 320 332 337 328 316 301 303 309 320 345 1 12 7 3 6 6 6 5 5 5 3
251 257 260 266 265 267 273 273 276 275 281 292 300 310 316 313 318 307 300 303 303 286 270 265 264 265 273 289 304 309 319 322 322 333 359 355 335 321 320 317 313 336 5 0 1 7 9 10 10 8 7 6 5 5
261 261 260 270 265 266 274 278 276 278 282 296 313 311 307 299 290 306 314 316 298 281 275 277 279 283 292 304 315 323 324 333 350 10 16 359 338 327 325 329 339 3 0 0 7 12 15 13 12 11 9 5 7 8
258 264 272 272 278 278 275 277 283 288 285 282 275 272 283 320 325 325 316 314 303 290 281 278 287 298 310 320 322 319 340 350 1 12 3 349 334 329 336 353 1 3 7 8 8 12 16 17 17 16 15 13 13 12
253 273 271 274 273 271 273 270 273 277 274 271 281 294 305 326 335 336 333 324 301 286 286 290 297 303 305 313 315 320 323 329 333 350 12 23 21 38 28 18 15 15 18 20 22 25 27 27 26 21 17 13 10 8
277 272 261 266 265 268 271 274 276 280 281 281 287 291 296 306 310 322 324 315 309 302 295 289 292 297 304 307 311 313 313 321 324 334 345 4 30 45 41 35 32 28 28 31 34 33 33 29 24 20 15 12 11 10
292 285 284 280 279 281 282 280 281 284 287 287 289 293 296 301 301 315 310 304 300 291 288 292 288 291 297 301 305 308 312 324 329 335 351 5 17 26 34 30 29 31 31 30 32 34 29 25 19 17 15 14 13 13
333 330 325 318 310 304 299 296 294 291 291 291 291 291 293 296 298 308 310 308 299 292 289 291 295 299 302 301 303 306 316 323 330 342 358 9 24 31 29 25 27 32 33 30 29 29 26 21 17 16 15 15 15 15